Retour au catalogue

STARLINK-6309

ActifCommunicationsVLEO
NORAD 56535·PAYLOAD·🇺🇸 United States

Lancé May 14, 2023 depuis Cape Canaveral Space Force Station

Loading…

Prochains Passages (prochaines 24 heures)

TLE

FraisSource: CelesTrak SupGP

Époque: Sep 14, 2026, 20:52 UTC

1 56535C 23065AJ  26257.86993056  .00024829  00000+0  89950-3 0  2573
2 56535  42.9990 238.2538 0001465 258.8564 292.3657 15.27559014    18

Suivez STARLINK-6309 en temps réel avec AllMySat

Download on the App Store